This is the latest recevied weather packets stored in our database for station/object N8ESC. If no packets are shown the sender has not sent any weather packets the latest 10 day(s).
| Time | Temp. | Humidity | Pressure | Rain* | Wind** | Luminosity | Snow |
|---|---|---|---|---|---|---|---|
| 1777967378 | 5.56° C | 57% | 1000.1 hPa | 0 mm | - | 0 W/m² | - |
| 1777967076 | 5.56° C | 57% | 1000.1 hPa | 0 mm | - | 0 W/m² | - |
| 1777966772 | 6.11° C | 56% | 1000.1 hPa | 0 mm | - | 0 W/m² | - |
| 1777966470 | 6.11° C | 56% | 1000.4 hPa | 0 mm | - | 0 W/m² | - |
| 1777966167 | 6.11° C | 56% | 1000.1 hPa | 0 mm | - | 0 W/m² | - |
| 1777965863 | 6.67° C | 55% | 1000.2 hPa | 0 mm | - | 0 W/m² | - |
| 1777965560 | 6.67° C | 54% | 1000.1 hPa | 0 mm | - | 0 W/m² | - |
| 1777965256 | 6.67° C | 54% | 1000.2 hPa | 0 mm | - | 0 W/m² | - |
| 1777964954 | 6.67° C | 54% | 1000 hPa | 0 mm | - | 0 W/m² | - |
| 1777964650 | 6.67° C | 53% | 1000 hPa | 0 mm | - | 0 W/m² | - |
| 1777964346 | 7.22° C | 53% | 1000.1 hPa | 0 mm | - | 0 W/m² | - |
| 1777964042 | 6.67° C | 55% | 1000 hPa | 0 mm | - | 0 W/m² | - |
| 1777963739 | 6.67° C | 55% | 1000.1 hPa | 0 mm | - | 0 W/m² | - |
| 1777963436 | 6.67° C | 54% | 1000.1 hPa | 0 mm | - | 0 W/m² | - |
| 1777963135 | 6.11° C | 55% | 1000.1 hPa | 0 mm | - | 0 W/m² | - |
| 1777962835 | 6.11° C | 55% | 1000.1 hPa | 0 mm | - | 0 W/m² | - |
| 1777962532 | 6.11° C | 55% | 1000 hPa | 0 mm | - | 0 W/m² | - |
| 1777962230 | 6.67° C | 55% | 1000.1 hPa | 0 mm | - | 0 W/m² | - |
| 1777961926 | 6.67° C | 54% | 1000 hPa | 0 mm | - | 0 W/m² | - |
| 1777961624 | 6.67° C | 54% | 1000 hPa | 0 mm | - | 0 W/m² | - |
| 1777961322 | 6.67° C | 53% | 999.9 hPa | 0 mm | - | 0 W/m² | - |
| 1777961018 | 7.22° C | 53% | 999.9 hPa | 0 mm | - | 0 W/m² | - |
| 1777960714 | 7.22° C | 52% | 999.9 hPa | 0 mm | - | 0 W/m² | - |
| 1777960410 | 7.22° C | 51% | 999.8 hPa | 0 mm | - | 0 W/m² | - |
| 1777960108 | 7.22° C | 50% | 999.8 hPa | 0 mm | - | 0 W/m² | - |
* Rain latest hour (hover to see other rain measurements)
** Current wind speed in m/s (hover to see current wind gust speed)